Regional Weather Roundup
Issued by NWS

Home | Current Version | Previous Version | Text Only | Print | Product List | Glossary On
Versions: 1 2 3 4 5 6 7 8 9 10 11 12 13 14 15 16 17 18 19 20 21 22 23 24 25 26 27 28 29 30 31 32 33 34 35 36 37 38 39 40 41 42 43 44 45 46 47 48 49 50
000
ASCA42 TJSJ 111911
RWRPR
PUERTO RICO/U.S. VIRGIN ISLANDS HOURLY WEATHER ROUNDUP
NATIONAL WEATHER SERVICE SAN JUAN PR
300 PM AST FRI JUL 11 2014

PRZ001-004-112000-
PUERTO RICO

CITY           SKY/WX    TMP DP  RH WIND       PRES   REMARKS
SAN JUAN LMM   MOSUNNY   88  75  66 E15G24    30.06F HX  97
PONCE          PTSUNNY   90  75  62 E12G17    30.00S HX 100
MAYAGUEZ       PTSUNNY   81  73  78 E13       30.07S
AGUADILLA      TSTM      82  72  69 S10G17    30.08R
CEIBA          CLOUDY    86  73  66 SE15G22   30.09F HX  93
$$

PRZ006-007-112000-
U.S. VIRGIN ISLANDS

CITY           SKY/WX    TMP DP  RH WIND       PRES   REMARKS
CHARLOTTE AMA  CLOUDY    88  73  62 SE17G23   30.06S HX  96
CHRISTIANSTED  MOSUNNY   90  73  58 E20       30.06F HX  98
$$

HOURLY WEATHER ROUNDUP FOR THE NEWS MEDIA

CITY           SKY/WX    TMP DP  RH WIND       PRES   REMARKS
MIAMI          MOSUNNY   90  73  57 E12       30.10F HX  98
ORLANDO        MOSUNNY   83  72  69 E18       30.13S
NEW YORK       MOSUNNY   82  62  50 S10       30.19S
NEWARK         PTSUNNY   83  55  38 E6        30.17S
CHICAGO        PTSUNNY   79  50  36 S6        30.16F
HARTFORD       PTSUNNY   81  61  50 S7        30.17S
BOSTON         MOSUNNY   71  55  56 E8        30.21S
DALLAS         MOSUNNY   93  64  38 S9G18     30.11F HX  94
PHILADELPHIA   MOSUNNY   89  58  34 E6        30.17S



USA.gov is the U.S. government's official web portal to all federal, state and local government web resources and services.